| time (UTC) | temp C | wind direction | speed KPH | gust KPH | rain 1hr cm | rain 24hr cm | rain mn cm | humidity % | barometer mb |
| 20260507081912 | 14 | 198 | 0.0 | 1.6 | 0.00 | 0.08 | 0.08 | 89 | 1011.3 |
| 20260507081408 | 14 | 220 | 0.0 | 0.0 | 0.00 | 0.08 | 0.08 | 89 | 1011.1 |
| 20260507080905 | 14 | 220 | 0.0 | 1.6 | 0.00 | 0.08 | 0.08 | 89 | 1011.4 |
| 20260507080401 | 14 | 240 | 0.0 | 3.2 | 0.00 | 0.08 | 0.08 | 89 | 1011.3 |
| 20260507075857 | 14 | 243 | 0.0 | 0.0 | 0.00 | 0.08 | 0.08 | 90 | 1011.2 |
| 20260507075353 | 14 | 189 | 0.0 | 1.6 | 0.00 | 0.08 | 0.08 | 90 | 1011.5 |
| 20260507074850 | 14 | 307 | 1.6 | 4.8 | 0.00 | 0.08 | 0.08 | 90 | 1011.8 |
| 20260507074347 | 15 | 180 | 0.0 | 6.4 | 0.00 | 0.08 | 0.08 | 91 | 1011.8 |
| 20260507073844 | 15 | 338 | 1.6 | 11.3 | 0.00 | 0.08 | 0.08 | 92 | 1011.6 |
| 20260507073341 | 15 | 234 | 3.2 | 3.2 | 0.00 | 0.08 | 0.08 | 92 | 1011.6 |
| 20260507072838 | 15 | 246 | 3.2 | 4.8 | 0.00 | 0.08 | 0.08 | 92 | 1011.5 |
| 20260507072336 | 15 | 99 | 3.2 | 4.8 | 0.00 | 0.08 | 0.08 | 92 | 1011.2 |
| 20260507071833 | 15 | 247 | 1.6 | 12.9 | 0.00 | 0.08 | 0.08 | 92 | 1011.1 |
| 20260507071330 | 15 | 247 | 1.6 | 6.4 | 0.00 | 0.08 | 0.08 | 93 | 1010.9 |
| 20260507070826 | 15 | 172 | 4.8 | 14.5 | 0.00 | 0.08 | 0.08 | 93 | 1010.7 |
| 20260507070324 | 16 | 244 | 0.0 | 3.2 | 0.00 | 0.08 | 0.08 | 93 | 1010.8 |
| 20260507065820 | 16 | 182 | 1.6 | 4.8 | 0.00 | 0.08 | 0.08 | 94 | 1010.5 |
| 20260507065317 | 16 | 241 | 3.2 | 4.8 | 0.00 | 0.08 | 0.08 | 94 | 1010.1 |
| 20260507064814 | 16 | 163 | 0.0 | 1.6 | 0.00 | 0.08 | 0.08 | 94 | 1010.0 |
| 20260507064313 | 16 | 233 | 1.6 | 3.2 | 0.00 | 0.08 | 0.08 | 94 | 1010.0 |
| 20260507063810 | 16 | 154 | 1.6 | 3.2 | 0.00 | 0.08 | 0.08 | 94 | 1009.8 |
| 20260507063307 | 16 | 185 | 0.0 | 1.6 | 0.00 | 0.08 | 0.08 | 93 | 1009.8 |
| 20260507062803 | 16 | 119 | 1.6 | 1.6 | 0.00 | 0.08 | 0.08 | 94 | 1009.7 |
| 20260507062300 | 16 | 222 | 0.0 | 0.0 | 0.00 | 0.08 | 0.08 | 94 | 1010.0 |
| 20260507061759 | 16 | 185 | 0.0 | 0.0 | 0.00 | 0.08 | 0.08 | 94 | 1010.0 |
| 20260507061256 | 16 | 156 | 0.0 | 1.6 | 0.00 | 0.08 | 0.08 | 94 | 1010.1 |
| 20260507060754 | 17 | 222 | 0.0 | 1.6 | 0.00 | 0.08 | 0.08 | 94 | 1010.4 |
| 20260507060250 | 17 | 152 | 0.0 | 0.0 | 0.00 | 0.08 | 0.08 | 94 | 1010.3 |
| 20260507055747 | 17 | 175 | 0.0 | 0.0 | 0.00 | 0.08 | 0.08 | 94 | 1010.5 |
| 20260507055242 | 17 | 199 | 0.0 | 0.0 | 0.00 | 0.08 | 0.08 | 94 | 1010.6 |
| 20260507054739 | 17 | 169 | 0.0 | 1.6 | 0.00 | 0.08 | 0.08 | 94 | 1010.4 |
| 20260507054236 | 17 | 159 | 0.0 | 1.6 | 0.00 | 0.08 | 0.08 | 95 | 1010.5 |
| 20260507053733 | 17 | 152 | 1.6 | 1.6 | 0.00 | 0.08 | 0.08 | 95 | 1010.5 |
| 20260507053231 | 17 | 160 | 1.6 | 4.8 | 0.18 | 0.08 | 0.08 | 96 | 1010.6 |
| 20260507052730 | 17 | 127 | 1.6 | 1.6 | 0.48 | 0.08 | 0.08 | 95 | 1010.6 |
| 20260507052225 | 17 | 106 | 0.0 | 0.0 | 0.30 | 0.05 | 0.05 | 95 | 1010.6 |
| 20260507051724 | 17 | 105 | 0.0 | 0.0 | 0.00 | 0.00 | 0.00 | 95 | 1010.4 |
| 20260507051220 | 17 | 106 | 0.0 | 0.0 | 0.00 | 0.00 | 0.00 | 95 | 1010.8 |
| 20260507050717 | 17 | 106 | 0.0 | 0.0 | 0.00 | 0.00 | 0.00 | 95 | 1010.5 |
| 20260507050214 | 17 | 106 | 0.0 | 0.0 | 0.00 | 0.00 | 0.00 | 95 | 1010.4 |
| 20260507045710 | 17 | 106 | 0.0 | 0.0 | 0.00 | 0.00 | 0.00 | 95 | 1010.6 |
| 20260507045207 | 17 | 106 | 0.0 | 0.0 | 0.00 | 0.00 | 0.00 | 95 | 1010.5 |
| 20260507044704 | 17 | 106 | 0.0 | 0.0 | 0.00 | 0.00 | 0.00 | 95 | 1010.4 |
| 20260507044200 | 17 | 106 | 0.0 | 0.0 | 0.00 | 0.00 | 0.00 | 95 | 1010.8 |
| 20260507043657 | 17 | 106 | 0.0 | 0.0 | 0.00 | 0.00 | 0.00 | 95 | 1010.8 |
| 20260507043154 | 17 | 105 | 0.0 | 0.0 | 0.00 | 0.00 | 0.00 | 95 | 1010.5 |
| 20260507042650 | 17 | 105 | 0.0 | 0.0 | 0.00 | 0.00 | 0.00 | 95 | 1010.4 |
| 20260507042145 | 17 | 106 | 0.0 | 0.0 | 0.00 | 0.00 | 0.00 | 94 | 1010.5 |
| 20260507041642 | 17 | 106 | 0.0 | 0.0 | 0.00 | 0.00 | 0.00 | 95 | 1010.7 |
| 20260507041138 | 17 | 106 | 0.0 | 0.0 | 0.00 | 0.00 | 0.00 | 95 | 1010.4 |
| 20260507040636 | 17 | 105 | 0.0 | 0.0 | 0.00 | 0.00 | 0.00 | 95 | 1010.6 |
| 20260507040132 | 17 | 105 | 0.0 | 0.0 | 0.00 | 0.00 | 0.00 | 95 | 1010.7 |
| 20260507035628 | 17 | 105 | 0.0 | 0.0 | 0.00 | 0.33 | 0.33 | 95 | 1010.6 |
| 20260507035124 | 17 | 106 | 0.0 | 0.0 | 0.00 | 0.33 | 0.33 | 95 | 1010.6 |
| 20260507034621 | 17 | 106 | 0.0 | 0.0 | 0.00 | 0.33 | 0.33 | 95 | 1010.6 |
| 20260507034119 | 17 | 106 | 0.0 | 0.0 | 0.00 | 0.33 | 0.33 | 95 | 1010.8 |
| 20260507033617 | 16 | 106 | 0.0 | 0.0 | 0.00 | 0.33 | 0.33 | 94 | 1010.8 |
| 20260507033114 | 16 | 106 | 0.0 | 0.0 | 0.00 | 0.33 | 0.33 | 94 | 1010.7 |
| 20260507032611 | 16 | 106 | 0.0 | 0.0 | 0.00 | 0.33 | 0.33 | 94 | 1010.4 |
| 20260507032107 | 16 | 106 | 0.0 | 0.0 | 0.00 | 0.33 | 0.33 | 93 | 1010.4 |
| 20260507031604 | 16 | 106 | 0.0 | 0.0 | 0.00 | 0.33 | 0.33 | 93 | 1009.7 |
| 20260507031101 | 17 | 105 | 0.0 | 0.0 | 0.00 | 0.33 | 0.33 | 93 | 1010.1 |
| 20260507030557 | 17 | 105 | 0.0 | 0.0 | 0.00 | 0.33 | 0.33 | 93 | 1009.9 |
| 20260507030055 | 17 | 105 | 0.0 | 0.0 | 0.00 | 0.33 | 0.33 | 93 | 1009.9 |
| 20260507025552 | 17 | 105 | 0.0 | 0.0 | 0.00 | 0.33 | 0.33 | 92 | 1009.7 |
| 20260507025049 | 17 | 105 | 0.0 | 0.0 | 0.00 | 0.33 | 0.33 | 92 | 1010.0 |
| 20260507024547 | 17 | 105 | 0.0 | 0.0 | 0.00 | 0.33 | 0.33 | 92 | 1010.0 |
| 20260507024044 | 17 | 105 | 0.0 | 0.0 | 0.00 | 0.33 | 0.33 | 92 | 1009.9 |
| 20260507023539 | 17 | 105 | 0.0 | 0.0 | 0.00 | 0.33 | 0.33 | 91 | 1010.0 |
| 20260507023037 | 17 | 106 | 0.0 | 0.0 | 0.00 | 0.33 | 0.33 | 91 | 1010.2 |
| 20260507022534 | 17 | 106 | 0.0 | 0.0 | 0.00 | 0.33 | 0.33 | 91 | 1010.5 |
| 20260507022029 | 17 | 111 | 0.0 | 1.6 | 0.00 | 0.33 | 0.33 | 92 | 1010.5 |
| 20260507021525 | 17 | 180 | 0.0 | 0.0 | 0.00 | 0.33 | 0.33 | 92 | 1010.6 |
| 20260507021022 | 17 | 116 | 0.0 | 0.0 | 0.00 | 0.33 | 0.33 | 92 | 1010.8 |
| 20260507020520 | 17 | 158 | 0.0 | 1.6 | 0.00 | 0.33 | 0.33 | 93 | 1010.5 |
| 20260507020016 | 17 | 180 | 0.0 | 0.0 | 0.00 | 0.33 | 0.33 | 92 | 1010.6 |
| 20260507015515 | 17 | 144 | 0.0 | 0.0 | 0.00 | 0.33 | 0.33 | 92 | 1010.5 |
| 20260507015012 | 17 | 137 | 0.0 | 0.0 | 0.00 | 0.33 | 0.33 | 91 | 1010.6 |
| 20260507014508 | 17 | 137 | 0.0 | 0.0 | 0.00 | 0.33 | 0.33 | 91 | 1010.6 |
| 20260507014004 | 17 | 138 | 0.0 | 0.0 | 0.00 | 0.33 | 0.33 | 90 | 1010.4 |
| 20260507013500 | 17 | 138 | 0.0 | 0.0 | 0.00 | 0.33 | 0.33 | 89 | 1010.4 |
| 20260507012958 | 17 | 138 | 0.0 | 0.0 | 0.00 | 0.33 | 0.33 | 88 | 1010.3 |
| 20260507012455 | 18 | 137 | 0.0 | 0.0 | 0.00 | 0.33 | 0.33 | 87 | 1010.4 |
| 20260507011951 | 18 | 156 | 0.0 | 1.6 | 0.00 | 0.33 | 0.33 | 86 | 1010.5 |
| 20260507011448 | 18 | 225 | 0.0 | 0.0 | 0.00 | 0.33 | 0.33 | 86 | 1010.2 |
| 20260507010944 | 18 | 15 | 1.6 | 1.6 | 0.00 | 0.33 | 0.33 | 86 | 1010.6 |
| 20260507010439 | 18 | 54 | 0.0 | 0.0 | 0.00 | 0.33 | 0.33 | 86 | 1010.4 |
| 20260507005936 | 18 | 151 | 0.0 | 1.6 | 0.00 | 0.33 | 0.33 | 86 | 1010.5 |
| 20260507005433 | 18 | 165 | 0.0 | 1.6 | 0.00 | 0.33 | 0.33 | 85 | 1010.1 |
| 20260507004930 | 18 | 150 | 0.0 | 0.0 | 0.00 | 0.33 | 0.33 | 85 | 1010.3 |
| 20260507004426 | 19 | 299 | 0.0 | 1.6 | 0.00 | 0.33 | 0.33 | 84 | 1010.2 |
| 20260507003924 | 19 | 74 | 0.0 | 3.2 | 0.00 | 0.33 | 0.33 | 84 | 1010.3 |
| 20260507003419 | 19 | 71 | 0.0 | 4.8 | 0.00 | 0.33 | 0.33 | 84 | 1010.5 |
| 20260507002914 | 19 | 339 | 1.6 | 1.6 | 0.00 | 0.33 | 0.33 | 84 | 1010.4 |
| 20260507002410 | 19 | 310 | 1.6 | 1.6 | 0.00 | 0.33 | 0.33 | 84 | 1010.3 |
| 20260507001908 | 19 | 95 | 1.6 | 4.8 | 0.00 | 0.33 | 0.33 | 84 | 1010.2 |
| 20260507001404 | 19 | 193 | 0.0 | 1.6 | 0.00 | 0.33 | 0.33 | 83 | 1010.2 |
| 20260507000902 | 20 | 128 | 1.6 | 1.6 | 0.00 | 0.33 | 0.33 | 83 | 1010.1 |
| 20260507000358 | 20 | 4 | 1.6 | 3.2 | 0.00 | 0.33 | 0.33 | 82 | 1010.1 |
| 20260506235853 | 20 | 276 | 0.0 | 1.6 | 0.00 | 0.33 | 0.33 | 81 | 1009.8 |
| 20260506235351 | 20 | 28 | 1.6 | 1.6 | 0.00 | 0.33 | 0.33 | 81 | 1009.7 |
| 20260506234846 | 20 | 316 | 1.6 | 3.2 | 0.00 | 0.33 | 0.33 | 80 | 1010.0 |
| 20260506234344 | 20 | 116 | 0.0 | 4.8 | 0.00 | 0.33 | 0.33 | 80 | 1010.0 |
| 20260506233842 | 20 | 45 | 1.6 | 1.6 | 0.00 | 0.33 | 0.33 | 80 | 1009.9 |
| 20260506233337 | 20 | 97 | 1.6 | 4.8 | 0.00 | 0.33 | 0.33 | 80 | 1009.8 |
| 20260506232835 | 20 | 97 | 1.6 | 3.2 | 0.00 | 0.33 | 0.33 | 79 | 1009.9 |
| 20260506232330 | 20 | 122 | 0.0 | 1.6 | 0.00 | 0.33 | 0.33 | 79 | 1009.9 |
| 20260506231827 | 21 | 276 | 0.0 | 3.2 | 0.00 | 0.33 | 0.33 | 79 | 1009.6 |
| 20260506231325 | 21 | 128 | 3.2 | 4.8 | 0.00 | 0.33 | 0.33 | 78 | 1009.7 |
| 20260506230822 | 21 | 125 | 6.4 | 6.4 | 0.00 | 0.33 | 0.33 | 78 | 1009.3 |
| 20260506230318 | 21 | 337 | 0.0 | 6.4 | 0.00 | 0.33 | 0.33 | 78 | 1009.7 |
| 20260506225814 | 21 | 16 | 3.2 | 4.8 | 0.00 | 0.33 | 0.33 | 77 | 1009.7 |
| 20260506225312 | 21 | 79 | 3.2 | 6.4 | 0.00 | 0.33 | 0.33 | 77 | 1009.9 |
| 20260506224809 | 21 | 337 | 0.0 | 3.2 | 0.00 | 0.33 | 0.33 | 76 | 1009.9 |
| 20260506224306 | 21 | 124 | 3.2 | 9.7 | 0.00 | 0.33 | 0.33 | 76 | 1009.7 |
| 20260506223802 | 21 | 212 | 3.2 | 11.3 | 0.00 | 0.33 | 0.33 | 76 | 1009.7 |
| 20260506223257 | 21 | 35 | 3.2 | 6.4 | 0.00 | 0.33 | 0.33 | 76 | 1009.6 |
| 20260506222755 | 21 | 345 | 3.2 | 6.4 | 0.00 | 0.33 | 0.33 | 75 | 1009.9 |
| 20260506222250 | 21 | 296 | 3.2 | 4.8 | 0.00 | 0.33 | 0.33 | 76 | 1009.9 |
| 20260506221748 | 21 | 23 | 3.2 | 14.5 | 0.00 | 0.33 | 0.33 | 76 | 1009.6 |
| 20260506221246 | 21 | 8 | 1.6 | 12.9 | 0.00 | 0.33 | 0.33 | 76 | 1009.8 |
| 20260506220743 | 21 | 338 | 6.4 | 11.3 | 0.00 | 0.33 | 0.33 | 76 | 1009.9 |
| 20260506220238 | 21 | 83 | 3.2 | 11.3 | 0.00 | 0.33 | 0.33 | 75 | 1009.8 |
| 20260506215735 | 21 | 336 | 8.0 | 11.3 | 0.00 | 0.33 | 0.33 | 76 | 1010.1 |
| 20260506215230 | 21 | 92 | 4.8 | 11.3 | 0.00 | 0.33 | 0.33 | 76 | 1009.9 |
| 20260506214727 | 21 | 95 | 6.4 | 12.9 | 0.00 | 0.33 | 0.33 | 75 | 1009.8 |
| 20260506214225 | 21 | 73 | 1.6 | 11.3 | 0.00 | 0.33 | 0.33 | 76 | 1009.9 |
| 20260506213722 | 21 | 335 | 9.7 | 12.9 | 0.00 | 0.33 | 0.33 | 76 | 1010.1 |
| 20260506213220 | 21 | 333 | 3.2 | 4.8 | 0.00 | 0.33 | 0.33 | 76 | 1010.1 |
| 20260506212717 | 21 | 76 | 1.6 | 6.4 | 0.00 | 0.33 | 0.33 | 75 | 1010.0 |
| 20260506212212 | 21 | 105 | 1.6 | 6.4 | 0.00 | 0.33 | 0.33 | 76 | 1009.9 |
| 20260506211708 | 21 | 160 | 1.6 | 9.7 | 0.00 | 0.33 | 0.33 | 76 | 1010.0 |
| 20260506211204 | 21 | 48 | 6.4 | 11.3 | 0.00 | 0.33 | 0.33 | 75 | 1010.2 |
| 20260506210701 | 21 | 64 | 4.8 | 4.8 | 0.00 | 0.33 | 0.33 | 76 | 1010.1 |
| 20260506210158 | 21 | 53 | 4.8 | 12.9 | 0.00 | 0.33 | 0.33 | 76 | 1010.1 |
| 20260506205655 | 21 | 116 | 8.0 | 11.3 | 0.00 | 0.33 | 0.33 | 75 | 1009.8 |
| 20260506205150 | 21 | 68 | 3.2 | 11.3 | 0.00 | 0.33 | 0.33 | 77 | 1009.9 |
| 20260506204648 | 20 | 100 | 4.8 | 14.5 | 0.00 | 0.33 | 0.33 | 77 | 1009.9 |
| 20260506204144 | 20 | 346 | 0.0 | 9.7 | 0.00 | 0.33 | 0.33 | 78 | 1009.8 |
| 20260506203643 | 20 | 335 | 4.8 | 9.7 | 0.00 | 0.33 | 0.33 | 78 | 1009.9 |
| 20260506203139 | 20 | 37 | 6.4 | 6.4 | 0.00 | 0.33 | 0.33 | 78 | 1009.7 |
| 20260506202638 | 20 | 47 | 6.4 | 11.3 | 0.00 | 0.33 | 0.33 | 78 | 1009.9 |
| 20260506202133 | 20 | 315 | 4.8 | 6.4 | 0.00 | 0.33 | 0.33 | 79 | 1009.9 |
| 20260506201630 | 20 | 194 | 4.8 | 9.7 | 0.00 | 0.33 | 0.33 | 79 | 1009.9 |
| 20260506201127 | 20 | 66 | 1.6 | 12.9 | 0.00 | 0.33 | 0.33 | 78 | 1009.8 |
| 20260506200623 | 20 | 14 | 4.8 | 9.7 | 0.00 | 0.33 | 0.33 | 79 | 1010.1 |
| 20260506200120 | 20 | 337 | 1.6 | 4.8 | 0.00 | 0.33 | 0.33 | 80 | 1009.7 |
| 20260506195617 | 20 | 195 | 3.2 | 16.1 | 0.00 | 0.33 | 0.33 | 80 | 1009.8 |
| 20260506195113 | 20 | 21 | 6.4 | 11.3 | 0.00 | 0.33 | 0.33 | 79 | 1010.1 |
| 20260506194611 | 20 | 32 | 1.6 | 3.2 | 0.00 | 0.33 | 0.33 | 80 | 1010.6 |
| 20260506194107 | 20 | 130 | 1.6 | 6.4 | 0.00 | 0.33 | 0.33 | 79 | 1010.5 |
| 20260506193605 | 20 | 60 | 1.6 | 9.7 | 0.00 | 0.33 | 0.33 | 79 | 1010.4 |
| 20260506193102 | 20 | 85 | 3.2 | 9.7 | 0.00 | 0.33 | 0.33 | 78 | 1010.5 |
| 20260506192559 | 20 | 278 | 1.6 | 6.4 | 0.00 | 0.33 | 0.33 | 79 | 1010.3 |
| 20260506192055 | 20 | 96 | 1.6 | 6.4 | 0.00 | 0.33 | 0.33 | 78 | 1010.4 |
| 20260506191551 | 20 | 282 | 6.4 | 12.9 | 0.00 | 0.33 | 0.33 | 78 | 1010.7 |
| 20260506191047 | 20 | 154 | 3.2 | 6.4 | 0.00 | 0.33 | 0.33 | 78 | 1010.4 |
| 20260506190545 | 20 | 334 | 1.6 | 6.4 | 0.00 | 0.33 | 0.33 | 78 | 1010.7 |
| 20260506190042 | 20 | 70 | 3.2 | 6.4 | 0.00 | 0.33 | 0.33 | 78 | 1010.6 |
| 20260506185539 | 20 | 278 | 3.2 | 3.2 | 0.00 | 0.33 | 0.33 | 78 | 1010.7 |
| 20260506185035 | 20 | 191 | 6.4 | 11.3 | 0.00 | 0.33 | 0.33 | 78 | 1010.9 |
| 20260506184533 | 20 | 58 | 6.4 | 11.3 | 0.00 | 0.33 | 0.33 | 78 | 1010.7 |
| 20260506184030 | 20 | 74 | 8.0 | 11.3 | 0.00 | 0.33 | 0.33 | 78 | 1011.1 |
| 20260506183525 | 20 | 59 | 11.3 | 20.9 | 0.00 | 0.33 | 0.33 | 78 | 1011.1 |
| 20260506183023 | 20 | 48 | 3.2 | 17.7 | 0.00 | 0.33 | 0.33 | 78 | 1011.4 |
| 20260506182520 | 20 | 12 | 1.6 | 6.4 | 0.00 | 0.33 | 0.33 | 78 | 1011.4 |
| 20260506182017 | 20 | 2 | 3.2 | 4.8 | 0.00 | 0.33 | 0.33 | 80 | 1011.1 |
| 20260506181515 | 20 | 327 | 3.2 | 17.7 | 0.00 | 0.33 | 0.33 | 80 | 1011.2 |
| 20260506181012 | 20 | 51 | 4.8 | 11.3 | 0.00 | 0.33 | 0.33 | 80 | 1011.2 |
| 20260506180508 | 20 | 321 | 6.4 | 12.9 | 0.00 | 0.33 | 0.33 | 81 | 1011.2 |
| 20260506180005 | 19 | 277 | 3.2 | 6.4 | 0.00 | 0.33 | 0.33 | 81 | 1011.1 |
| 20260506175501 | 19 | 180 | 4.8 | 6.4 | 0.00 | 0.33 | 0.33 | 82 | 1011.2 |
| 20260506174957 | 19 | 135 | 3.2 | 11.3 | 0.00 | 0.33 | 0.33 | 83 | 1011.6 |
| 20260506174456 | 19 | 160 | 1.6 | 9.7 | 0.00 | 0.33 | 0.33 | 83 | 1011.7 |
| 20260506173952 | 18 | 79 | 1.6 | 12.9 | 0.00 | 0.33 | 0.33 | 84 | 1011.6 |
| 20260506173450 | 18 | 23 | 4.8 | 9.7 | 0.00 | 0.33 | 0.33 | 85 | 1011.7 |
| 20260506172946 | 18 | 346 | 9.7 | 11.3 | 0.00 | 0.33 | 0.33 | 84 | 1011.8 |
| 20260506172444 | 18 | 93 | 3.2 | 4.8 | 0.00 | 0.33 | 0.33 | 86 | 1011.6 |
| 20260506171940 | 18 | 121 | 4.8 | 11.3 | 0.00 | 0.33 | 0.33 | 86 | 1011.7 |
| 20260506171438 | 18 | 353 | 1.6 | 4.8 | 0.00 | 0.33 | 0.33 | 88 | 1011.6 |
| 20260506170935 | 18 | 294 | 3.2 | 6.4 | 0.00 | 0.33 | 0.33 | 89 | 1011.7 |
| 20260506170431 | 18 | 324 | 4.8 | 4.8 | 0.00 | 0.33 | 0.33 | 89 | 1011.5 |
| 20260506165930 | 18 | 319 | 3.2 | 11.3 | 0.00 | 0.33 | 0.33 | 89 | 1011.3 |
| 20260506165429 | 17 | 104 | 4.8 | 9.7 | 0.00 | 0.33 | 0.33 | 89 | 1011.9 |
| 20260506164924 | 17 | 113 | 0.0 | 6.4 | 0.00 | 0.33 | 0.33 | 89 | 1011.9 |
| 20260506164421 | 17 | 123 | 4.8 | 4.8 | 0.00 | 0.33 | 0.33 | 90 | 1011.7 |
| 20260506163919 | 17 | 26 | 3.2 | 11.3 | 0.00 | 0.33 | 0.33 | 90 | 1011.8 |
| 20260506163413 | 17 | 81 | 4.8 | 14.5 | 0.00 | 0.33 | 0.33 | 90 | 1012.0 |
| 20260506162909 | 17 | 138 | 3.2 | 9.7 | 0.00 | 0.33 | 0.33 | 91 | 1011.7 |
| 20260506162407 | 17 | 11 | 4.8 | 9.7 | 0.00 | 0.33 | 0.33 | 91 | 1012.0 |
| 20260506161904 | 17 | 317 | 4.8 | 12.9 | 0.13 | 0.33 | 0.33 | 91 | 1012.0 |
| 20260506161402 | 17 | 337 | 6.4 | 12.9 | 0.13 | 0.33 | 0.33 | 90 | 1012.1 |
| 20260506160859 | 16 | 30 | 1.6 | 6.4 | 0.18 | 0.30 | 0.30 | 90 | 1012.4 |
| 20260506160356 | 16 | 335 | 8.0 | 11.3 | 0.36 | 0.30 | 0.30 | 90 | 1012.2 |
| 20260506155854 | 16 | 64 | 6.4 | 9.7 | 0.30 | 0.28 | 0.28 | 90 | 1012.2 |
| 20260506155351 | 16 | 47 | 0.0 | 6.4 | 0.30 | 0.25 | 0.25 | 89 | 1012.4 |
| 20260506153508 | 17 | 327 | 9.7 | 11.3 | 0.00 | 0.13 | 0.13 | 86 | 1012.8 |
| 20260506153005 | 17 | 323 | 6.4 | 9.7 | 0.18 | 0.13 | 0.13 | 86 | 1012.9 |
| 20260506152502 | 17 | 136 | 6.4 | 9.7 | 0.18 | 0.13 | 0.13 | 85 | 1012.8 |
| 20260506152000 | 17 | 313 | 16.1 | 22.5 | 0.13 | 0.10 | 0.10 | 84 | 1013.0 |
| 20260506151458 | 17 | 326 | 8.0 | 12.9 | 0.13 | 0.10 | 0.10 | 83 | 1012.9 |
| 20260506150955 | 17 | 53 | 6.4 | 12.9 | 0.00 | 0.08 | 0.08 | 82 | 1012.8 |
| 20260506150450 | 18 | 326 | 4.8 | 14.5 | 0.00 | 0.08 | 0.08 | 81 | 1012.9 |
| 20260506145948 | 18 | 305 | 0.0 | 1.6 | 0.00 | 0.08 | 0.08 | 82 | 1012.9 |
| 20260506145444 | 18 | 157 | 1.6 | 12.9 | 0.00 | 0.08 | 0.08 | 84 | 1012.9 |
| 20260506144942 | 18 | 16 | 4.8 | 4.8 | 0.00 | 0.08 | 0.08 | 84 | 1012.8 |
| 20260506144438 | 18 | 313 | 1.6 | 4.8 | 0.18 | 0.08 | 0.08 | 84 | 1012.8 |
| 20260506143937 | 17 | 112 | 0.0 | 1.6 | 0.00 | 0.05 | 0.05 | 85 | 1012.8 |
| 20260506143433 | 17 | 89 | 3.2 | 6.4 | 0.00 | 0.05 | 0.05 | 85 | 1012.7 |
| 20260506142932 | 17 | 255 | 0.0 | 4.8 | 0.13 | 0.05 | 0.05 | 83 | 1012.7 |
| 20260506142429 | 17 | 45 | 3.2 | 6.4 | 0.13 | 0.05 | 0.05 | 81 | 1012.8 |
| 20260506141927 | 18 | 317 | 3.2 | 3.2 | 0.18 | 0.03 | 0.03 | 80 | 1012.6 |
| 20260506141425 | 18 | 53 | 1.6 | 3.2 | 0.18 | 0.03 | 0.03 | 78 | 1012.4 |
| 20260506140923 | 18 | 87 | 1.6 | 4.8 | 0.00 | 0.00 | 0.00 | 76 | 1012.8 |
| 20260506140419 | 19 | 82 | 0.0 | 4.8 | 0.00 | 0.00 | 0.00 | 73 | 1012.8 |
| 20260506135916 | 19 | 335 | 3.2 | 3.2 | 0.00 | 0.00 | 0.00 | 70 | 1012.7 |
| 20260506135414 | 19 | 47 | 1.6 | 4.8 | 0.00 | 0.00 | 0.00 | 69 | 1012.8 |
| 20260506134910 | 19 | 154 | 3.2 | 9.7 | 0.00 | 0.00 | 0.00 | 69 | 1013.0 |
| 20260506134406 | 19 | 277 | 3.2 | 4.8 | 0.00 | 0.00 | 0.00 | 69 | 1012.9 |
| 20260506133903 | 19 | 8 | 3.2 | 6.4 | 0.00 | 0.00 | 0.00 | 69 | 1012.8 |
| 20260506133400 | 19 | 350 | 3.2 | 6.4 | 0.00 | 0.00 | 0.00 | 69 | 1013.1 |
| 20260506132856 | 19 | 327 | 3.2 | 11.3 | 0.00 | 0.00 | 0.00 | 69 | 1012.7 |
| 20260506132353 | 19 | 158 | 1.6 | 9.7 | 0.00 | 0.00 | 0.00 | 68 | 1012.9 |
| 20260506131852 | 19 | 351 | 6.4 | 9.7 | 0.00 | 0.00 | 0.00 | 68 | 1012.9 |
| 20260506131348 | 19 | 66 | 4.8 | 16.1 | 0.00 | 0.00 | 0.00 | 68 | 1012.5 |
| 20260506130845 | 20 | 298 | 3.2 | 6.4 | 0.00 | 0.00 | 0.00 | 69 | 1012.6 |
| 20260506130341 | 19 | 39 | 1.6 | 14.5 | 0.00 | 0.00 | 0.00 | 68 | 1012.5 |
| 20260506125839 | 19 | 40 | 1.6 | 11.3 | 0.00 | 0.00 | 0.00 | 69 | 1012.5 |
| 20260506125337 | 20 | 116 | 4.8 | 11.3 | 0.00 | 0.00 | 0.00 | 68 | 1012.5 |
| 20260506124835 | 20 | 322 | 3.2 | 9.7 | 0.00 | 0.00 | 0.00 | 68 | 1012.5 |
| 20260506124332 | 19 | 316 | 6.4 | 11.3 | 0.00 | 0.00 | 0.00 | 69 | 1012.4 |
| 20260506123830 | 19 | 103 | 6.4 | 16.1 | 0.00 | 0.00 | 0.00 | 69 | 1012.4 |
| 20260506123328 | 19 | 113 | 4.8 | 11.3 | 0.00 | 0.00 | 0.00 | 69 | 1012.4 |
| 20260506122825 | 19 | 155 | 3.2 | 14.5 | 0.00 | 0.00 | 0.00 | 69 | 1012.4 |
| 20260506122322 | 19 | 336 | 6.4 | 16.1 | 0.00 | 0.00 | 0.00 | 69 | 1012.7 |
| 20260506121820 | 18 | 313 | 3.2 | 12.9 | 0.00 | 0.00 | 0.00 | 69 | 1012.7 |
| 20260506121317 | 18 | 350 | 3.2 | 6.4 | 0.00 | 0.00 | 0.00 | 70 | 1012.6 |
| 20260506120814 | 18 | 11 | 8.0 | 12.9 | 0.00 | 0.00 | 0.00 | 70 | 1012.9 |
| 20260506120312 | 18 | 215 | 1.6 | 12.9 | 0.00 | 0.00 | 0.00 | 70 | 1012.9 |
| 20260506115809 | 18 | 32 | 8.0 | 20.9 | 0.00 | 0.00 | 0.00 | 70 | 1012.8 |
| 20260506115307 | 18 | 341 | 8.0 | 12.9 | 0.00 | 0.00 | 0.00 | 70 | 1013.1 |
| 20260506114804 | 18 | 146 | 1.6 | 14.5 | 0.00 | 0.00 | 0.00 | 70 | 1012.7 |
| 20260506114302 | 18 | 58 | 6.4 | 9.7 | 0.00 | 0.00 | 0.00 | 70 | 1012.8 |
| 20260506113800 | 18 | 23 | 11.3 | 14.5 | 0.00 | 0.00 | 0.00 | 69 | 1012.9 |
| 20260506113258 | 18 | 9 | 4.8 | 6.4 | 0.00 | 0.00 | 0.00 | 70 | 1012.6 |
| 20260506112754 | 18 | 1 | 4.8 | 17.7 | 0.00 | 0.00 | 0.00 | 69 | 1012.7 |
| 20260506112251 | 18 | 11 | 6.4 | 11.3 | 0.00 | 0.00 | 0.00 | 70 | 1012.8 |
| 20260506111749 | 18 | 117 | 6.4 | 12.9 | 0.00 | 0.00 | 0.00 | 70 | 1012.8 |
| 20260506111247 | 18 | 309 | 12.9 | 14.5 | 0.00 | 0.00 | 0.00 | 70 | 1012.7 |
| 20260506110743 | 17 | 174 | 1.6 | 11.3 | 0.00 | 0.00 | 0.00 | 71 | 1012.4 |
| 20260506110241 | 17 | 95 | 0.0 | 3.2 | 0.00 | 0.00 | 0.00 | 72 | 1012.9 |
| 20260506105737 | 17 | 358 | 3.2 | 4.8 | 0.00 | 0.00 | 0.00 | 72 | 1012.6 |
| 20260506105234 | 17 | 310 | 1.6 | 3.2 | 0.00 | 0.00 | 0.00 | 72 | 1012.4 |
| 20260506104732 | 17 | 342 | 4.8 | 14.5 | 0.00 | 0.00 | 0.00 | 72 | 1012.6 |
| 20260506104230 | 17 | 132 | 1.6 | 11.3 | 0.00 | 0.00 | 0.00 | 72 | 1012.7 |
| 20260506103727 | 17 | 325 | 6.4 | 6.4 | 0.00 | 0.00 | 0.00 | 72 | 1012.6 |
| 20260506103224 | 17 | 32 | 1.6 | 9.7 | 0.00 | 0.00 | 0.00 | 72 | 1012.5 |
| 20260506102722 | 17 | 328 | 4.8 | 9.7 | 0.00 | 0.00 | 0.00 | 72 | 1012.4 |
| 20260506102220 | 17 | 116 | 3.2 | 12.9 | 0.00 | 0.00 | 0.00 | 72 | 1012.6 |
| 20260506101716 | 17 | 302 | 3.2 | 6.4 | 0.00 | 0.00 | 0.00 | 73 | 1012.3 |
| 20260506101212 | 17 | 25 | 3.2 | 9.7 | 0.00 | 0.00 | 0.00 | 73 | 1012.2 |
| 20260506100711 | 17 | 331 | 4.8 | 6.4 | 0.00 | 0.00 | 0.00 | 73 | 1012.5 |
| 20260506100208 | 17 | 310 | 6.4 | 6.4 | 0.00 | 0.00 | 0.00 | 74 | 1012.4 |
| 20260506095707 | 17 | 43 | 4.8 | 6.4 | 0.00 | 0.00 | 0.00 | 74 | 1012.6 |
| 20260506095203 | 17 | 331 | 11.3 | 16.1 | 0.00 | 0.00 | 0.00 | 74 | 1012.5 |
| 20260506094700 | 17 | 335 | 0.0 | 11.3 | 0.00 | 0.00 | 0.00 | 74 | 1012.3 |
| 20260506094158 | 17 | 19 | 0.0 | 4.8 | 0.00 | 0.00 | 0.00 | 74 | 1012.4 |
| 20260506093657 | 17 | 61 | 1.6 | 1.6 | 0.00 | 0.00 | 0.00 | 74 | 1012.6 |
| 20260506093153 | 17 | 343 | 6.4 | 9.7 | 0.00 | 0.00 | 0.00 | 74 | 1012.4 |
| 20260506092651 | 17 | 36 | 0.0 | 12.9 | 0.00 | 0.00 | 0.00 | 74 | 1012.6 |
| 20260506092148 | 17 | 311 | 4.8 | 9.7 | 0.00 | 0.00 | 0.00 | 74 | 1012.4 |
| 20260506091646 | 17 | 346 | 3.2 | 6.4 | 0.00 | 0.00 | 0.00 | 74 | 1012.6 |
| 20260506091143 | 17 | 45 | 4.8 | 6.4 | 0.00 | 0.00 | 0.00 | 74 | 1012.5 |
| 20260506090641 | 17 | 145 | 0.0 | 9.7 | 0.00 | 0.00 | 0.00 | 74 | 1012.4 |
| 20260506090137 | 17 | 109 | 3.2 | 9.7 | 0.00 | 0.00 | 0.00 | 74 | 1012.4 |
| 20260506085634 | 17 | 77 | 4.8 | 6.4 | 0.00 | 0.00 | 0.00 | 74 | 1012.6 |
| 20260506085130 | 17 | 336 | 3.2 | 6.4 | 0.00 | 0.00 | 0.00 | 74 | 1012.5 |
| 20260506084627 | 17 | 316 | 3.2 | 9.7 | 0.00 | 0.00 | 0.00 | 74 | 1012.7 |
| 20260506084124 | 18 | 7 | 1.6 | 1.6 | 0.00 | 0.00 | 0.00 | 74 | 1012.8 |
| 20260506083621 | 17 | 327 | 6.4 | 9.7 | 0.00 | 0.00 | 0.00 | 74 | 1012.5 |
| 20260506083119 | 18 | 311 | 1.6 | 11.3 | 0.00 | 0.00 | 0.00 | 74 | 1012.4 |
| 20260506082615 | 18 | 52 | 6.4 | 12.9 | 0.00 | 0.00 | 0.00 | 74 | 1012.7 |